User: anonymous   Login
Location: Unspecified
(0.0000°N, 0.0000°E)
Time: 02:37:20
(UTC+00:00)
Language:

Envisat - Orbit

View from above orbital plane
View from above orbital plane
View from above satellite
View from above satellite

Ground track
Ground track

The orbit data is extracted from the following two-line orbital elements,

1 27386U 02009A   19287.69310581 -.00000004  00000-0  12220-4 0  9993
2 27386  98.1454 302.6592 0001171  92.3492  22.5350 14.37959647923157
Epoch (UTC): 14 October 2019 16:38:04
Eccentricity: 0.0001171
inclination: 98.1454°
perigee height: 764 km
apogee height: 766 km
right ascension of ascending node: 302.6592°
argument of perigee: 92.3492°
revolutions per day: 14.37959647
mean anomaly at epoch: 22.5350°
orbit number at epoch: 92315

The dashed part of the orbit path shows where the satellite is in the earth's shadow,  

DLR